AirNav   Air Wisconsin Up To $57,000 Bonus
 
 1182 users online  

KRIR Flabob Airport
Riverside/Rubidoux, California, USA

GOING TO RIVERSIDE/RUBIDOUX?


FAA INFORMATION EFFECTIVE 22 APRIL 2021

Location

FAA Identifier: RIR
Lat/Long: 33-59-19.6350N 117-24-35.6750W
33-59.327250N 117-24.594583W
33.9887875,-117.4099097
(estimated)
Elevation: 767 ft. / 234 m (estimated)
Variation: 13E (2010)
From city: 3 miles NW of central business district of the associated city
Time zone: UTC -7 (UTC -8 during Standard Time)
Zip code: 92509

Airport Operations

Airport use: Open to the public
Activation date: 04/1942
Control tower: no
ARTCC: LOS ANGELES CENTER
FSS: RIVERSIDE FLIGHT SERVICE STATION
NOTAMs facility: RAL (NOTAM-D service available)
Attendance: MON-FRI 0830-1630
Pattern altitude: 1467 ft. MSL
NIGHT TPA 1000 FT AGL AROUND THE MOUNTAIN.
Wind indicator: lighted
Segmented circle: no
Lights: DUSK-DAWN. ACTVT MIRL RY 06/24 - CTAF.

Airport Communications

CTAF/UNICOM: 122.8
SOCAL APPROACH: 135.4
SOCAL DEPARTURE: 135.4
WX ASOS at RAL (2.8 nm SW): 128.8 (951-352-4392)
WX ASOS at ONT (10 nm NW): PHONE 909-937-2186
WX AWOS-3 at SBD (11 nm NE): 124.175 (909-382-0067)
WX AWOS-3PT at AJO (11 nm SW): 132.175 (951-340-4764)
WX ASOS at CNO (11 nm W): PHONE 909-393-5823
WX AWOS-3P at CCB (16 nm NW): 119.525 (909-985-4731)
WX AWOS-3PT at POC (19 nm W): 124.4 (909-596-1523)

Nearby radio navigation aids

VOR radial/distance  VOR name  Freq  Var
RALr031/(2.8)RIVERSIDE VOR112.4014E
PDZr040/7.3PARADISE VORTAC112.2015E
HDFr305/(17.0)HOMELAND VOR113.4014E
POMr091/19.5POMONA VORTAC110.4015E
ELBr026/24.7EL TORO VOR/DME117.2014E
SLIr054/34.4SEAL BEACH VORTAC115.7015E
VCVr168/36.3VICTORVILLE VOR/DME109.0514E

 
NDB name  Hdg/Dist  Freq  Var  ID
PETIS194/4.639714ESB ... -...

Airport Services

Fuel available: 100LL
Parking: tiedowns
Airframe service: MAJOR
Powerplant service: MAJOR
Bottled oxygen: NONE
Bulk oxygen: NONE

Runway Information

Runway 6/24

Dimensions: 3190 x 50 ft. / 972 x 15 m
Surface: asphalt, in poor condition
RWY 6/24 THERMAL AND BLOCK CRACKING
Runway edge lights: medium intensity
RY 06/24 NSTD MIRL; ONE RED/GREEN LGT EACH SIDE OF THLD.
Runway edge markings: RWY MARKINGS FADED.
RUNWAY 6  RUNWAY 24
Latitude: 33-59.267000N33-59.387500N
Longitude: 117-24.901833W117-24.287333W
Elevation: 750.3 ft.766.8 ft.
Traffic pattern: leftleft
Runway heading: 064 magnetic, 077 true244 magnetic, 257 true
Markings: basic, in poor conditionbasic, in poor condition
Runway end identifier lights: nono
Touchdown point: yes, no lightsyes, no lights
Obstructions: 25 ft. trees, 310 ft. from runway, 4:1 slope to clearnone

Airport Ownership and Management from official FAA records

Ownership: Privately-owned
Owner: FLABOB AIRPORT, LLC
4130 MENNES AVE
RIVERSIDE, CA 92509
Phone 951-683-2309
Manager: BETH LAROCK
4130 MENNES AVE
RIVERSIDE, CA 92509
Phone 951-683-2309

Airport Operational Statistics

Aircraft based on the field: 122
Single engine airplanes: 110
Multi engine airplanes: 12
    
Aircraft operations: avg 30/day *
74% local general aviation
26% transient general aviation
* for 12-month period ending 31 December 2020

Additional Remarks

MTN 1340 FT MSL 3/4 MILE SE OF ARPT +20 FT CROSS ON TOP.
DEPARTURES TO THE SOUTH CTC RIVERSIDE ATCT.
RY 24 AFT TKOF TURN LEFT 10 DEG; STAY NORTH OF RIVERBED.
RY 24 CALM WIND RY.
FOR CD CTC SOCAL APCH AT 800-448-3724.

Instrument Procedures

NOTE: All procedures below are presented as PDF files. If you need a reader for these files, you should download the free Adobe Reader.

NOT FOR NAVIGATION. Please procure official charts for flight.
FAA instrument procedures published for use from 22 April 2021 at 0901Z to 20 May 2021 at 0900z.

 
IAPs - Instrument Approach Procedures
RNAV (GPS)-A   download (259KB)
NOTE: Special Take-Off Minimums/Departure Procedures apply   download (132KB)

Other nearby airports with instrument procedures:

KRAL - Riverside Municipal Airport (3 nm SW)
KRIV - March Air Reserve Base (10 nm SE)
KONT - Ontario International Airport (10 nm NW)
KSBD - San Bernardino International Airport (11 nm NE)
KAJO - Corona Municipal Airport (11 nm SW)
KCNO - Chino Airport (11 nm W)
KREI - Redlands Municipal Airport (14 nm NE)
KCCB - Cable Airport (16 nm NW)
KPOC - Brackett Field Airport (19 nm W)
 
Loc | Ops | Rwys | IFR | FBO | Links
Com | Nav | Svcs | Stats | Notes

San Bernardino International Airport Authority
 
Area around KRIR (Flabob Airport)
 
Road maps at: MapQuest Bing Google
 
Aerial photo
WARNING: Photo may not be current or correct
Aerial photo of KRIR (Flabob Airport)
Photo by Fred Emmert AirViews.com
Photo taken 25-Sep-2013
looking northeast.

Do you have a better or more recent aerial photo of Flabob Airport that you would like to share? If so, please send us your photo.

 
Sectional chart

 
Airport distance calculator
Flying to Flabob Airport? Find the distance to fly.

From to KRIR

Sunrise and sunset
Times for 13-May-2021
 Local
(UTC-7)
 Zulu
(UTC)
Morning civil twilight05:2312:23
Sunrise05:5112:51
Sunset19:4102:41
Evening civil twilight20:0903:09

Current date and time
Zulu (UTC)  13-May-2021 13:02:14
Local (UTC-7)  13-May-2021 06:02:14
 
METAR
KRAL 
3nm SW 
131253Z AUTO 00000KT 6SM BR OVC007 14/12 A3002 RMK AO2 SLP153 T01390122
KONT 
9nm NW 
131253Z 00000KT 3SM BR BKN007 14/12 A3001 RMK AO2 SLP153 T01390117
KRIV 
10nm SE 
131248Z 33003KT 1 1/2SM R32/3500VP6000FT BR BKN002 12/11 A3002 RMK AO2A SLP158
KCNO 
10nm W 
131253Z AUTO 00000KT 4SM HZ OVC009 15/12 A3003 RMK AO2 SLP164 T01500122
KSBD 
11nm NE 
131240Z AUTO 00000KT 7SM CLR 14/11 A3002 RMK AO2 T01430110
KAJO 
11nm SW 
131256Z AUTO 00000KT 8SM OVC010 14/13 A3002 RMK AO2 SLP162 T01440128
KCCB 
16nm NW 
119.525 909-985-4731
131255Z AUTO 00000KT 4SM BR CLR 12/12 A3001 RMK AO2
KPOC 
19nm W 
130247Z 25010KT 10SM CLR 17/12 A3004
TAF
KONT 
9nm NW 
131121Z 1312/1418 VRB05KT 4SM BR OVC007 FM131630 24005KT 5SM HZ SCT010 FM132000 26012G18KT P6SM SKC FM140500 25007KT P6SM SKC FM140900 VRB04KT 5SM BR OVC010 FM141700 VRB04KT 5SM HZ SCT015
KRIV 
10nm SE 
131200Z 1312/1418 31004KT 8000 BR FEW002 QNH3002INS BECMG 1312/1313 31004KT 3200 BR OVC002 QNH3003INS TEMPO 1312/1314 0800 FG VV001 BECMG 1315/1316 31004KT 9999 NSW SKC QNH3001INS BECMG 1319/1320 31009KT 9999 SKC QNH2995INS TEMPO 1321/1402 31012G18KT BECMG 1404/1405 31004KT 9999 SKC QNH2999INS BECMG 1409/1410 31004KT 3200 BR BKN002 QNH2998INS BECMG 1415/1416 31004KT 9999 NSW SKC QNH2998INS TX28/1322Z TN11/1313Z
KSBD 
11nm NE 
131121Z 1312/1412 VRB05KT 4SM HZ SCT007 FM132000 26010G16KT P6SM SKC FM140500 25005KT P6SM SKC FM140900 VRB04KT 5SM BR OVC010
NOTAMs
Click for the latest NOTAMs
NOTAMs are issued by the DoD/FAA and will open in a separate window not controlled by AirNav.

 

 
 

FBO, Fuel Providers, and Aircraft Ground Support

  
 Business Name 
 
 Contact 
 
 Services / Description 
 
Fuel Prices
 
Comments
  
Flabob Airport 951-683-2309
[web site]
Airport management, Aviation fuel, Aircraft parking (ramp or tiedown), Hangar leasing / sales, Flight training, Aircraft maintenance, Restrooms, Restaurant

More info about Flabob Airport
Phillips 66
100LL
SS $4.00 
 Updated 07-May-2021
 
   1 read write
SS=Self service
Update Fuel Prices
 

Where to Eat: Catering, Restaurants, Food shops

  
 Business Name 
 
 Contact 
 
 Services / Description 
 
Distance
 
Comments
  
Flabob Cafe 951-686-6660
no information available

If you are affiliated with Flabob Cafe and would like to show here your services, contact info, web link, logo, and more, click here
on airport  
   write
 

Would you like to see your business listed on this page?

 If your business provides an interesting product or service to pilots, flight crews, aircraft, or users of the Flabob Airport, you should consider listing it here.  To start the listing process, click on the button below
 
Add a business
 

Other Pages about Flabob Airport

www.flabob.org
philtilden.com/...
 
Update a link
 
Copyright © AirNav, LLC. All rights reserved. Privacy Policy  Contact